Voltar ao catálogo

SL-6 DEB *

AtivoHEO
NORAD 48262·DEBRIS·🇷🇺 Russia

Lançado Jul 18, 1980 de Plesetsk Cosmodrome

Loading…

Próximas Passagens (próximas 24 horas)

TLE

EnvelhecendoSource: Space-Track

Época: Sep 5, 2026, 06:52 UTC

1 48262U 80063F   26248.28616420 -.00000564  00000-0  73090-2 0  9997
2 48262  63.8009 351.2237 7210416 280.7335  69.1505  2.05099866 95816

Acompanhe SL-6 DEB * em tempo real com AllMySat

Download on the App Store